Weather History for Joliet, IL

Change the Weather History Date:

Saturday, May 11, 2013

  Actual Average (KLOT) Record (KLOT)
Temperature  
Mean Temperature 51 °F 59 °F  
Max Temperature 60 °F 70 °F 90 °F (2011)
Min Temperature 42 °F 48 °F 39 °F (2006)
Degree Days  
Heating Degree Days 14 7  
Month to date heating degree days 92  
Since 1 July heating degree days 6086  
Cooling Degree Days 0 1  
Month to date cooling degree days 9  
Year to date cooling degree days 14  
Growing Degree Days 1 (Base 50)    
Moisture  
Dew Point 38 °F    
Average Humidity 65    
Maximum Humidity 97    
Minimum Humidity 26    
Precipitation  
Precipitation 0.00 in 0.13 in 2.71 in (2002)
Month to date precipitation 1.53  
Year to date precipitation 11.97  
Sea Level Pressure  
Sea Level Pressure 29.96 in    
Wind  
Wind Speed 5 mph (WNW)    
Max Wind Speed 18 mph    
Max Gust Speed 34 mph    
Visibility 9 miles    
Events      
T = Trace of Precipitation, MM = Missing Value Source: NWS Daily Summary

Daily Weather History Graph

Daily Weather History Graph

Search for Another Location

Airport:

Trip Planner

Search our weather history database for the weather conditions in past years. The results will help you decide how hot, cold, wet, or windy it might be!

Date:

Astronomy

May. 11, 2013 Rise Set
Actual Time 5:37 AM CDT 8:01 PM CDT
Civil Twilight 5:06 AM CDT 8:32 PM CDT
Nautical Twilight 4:27 AM CDT 9:11 PM CDT
Astronomical Twilight 3:44 AM CDT 9:54 PM CDT
Moon 6:44 AM CDT (5/11) 9:41 PM CDT (5/11)
Length of Visible Light 15h 26m
Length of Day
14h 23m
Waxing Crescent, 3% of the Moon is Illuminated
May 11
Waxing Crescent
May 17
First Quarter
May 24
Full
May 31
Last Quarter
Jun 8
New

Hourly Weather History & Observations

Time (CDT) Temp. Windchill Dew Point Humidity Pressure Visibility Wind Dir Wind Speed Gust Speed Precip Events Conditions
12:15 AM 46.6 °F - 43.7 °F 90% 29.97 in 7.0 mi Calm Calm - N/A   Overcast
12:35 AM 46.8 °F - 43.9 °F 90% 29.97 in 5.0 mi Calm Calm - N/A   Overcast
12:55 AM 47.1 °F - 43.9 °F 88% 29.97 in 5.0 mi Calm Calm - N/A   Overcast
1:15 AM 47.3 °F - 44.4 °F 90% 29.97 in 5.0 mi Calm Calm - N/A   Overcast
1:35 AM 47.3 °F - 44.6 °F 90% 29.97 in 5.0 mi Calm Calm - N/A   Overcast
1:55 AM 47.3 °F - 44.8 °F 91% 29.97 in 5.0 mi Calm Calm - N/A   Overcast
2:15 AM 47.3 °F - 44.8 °F 91% 29.97 in 5.0 mi Calm Calm - N/A   Overcast
2:35 AM 46.9 °F - 44.6 °F 92% 29.97 in 5.0 mi Calm Calm - N/A   Mostly Cloudy
2:55 AM 46.9 °F - 44.6 °F 92% 29.97 in 5.0 mi Calm Calm - N/A   Overcast
3:15 AM 46.0 °F - 43.5 °F 91% 29.97 in 5.0 mi Calm Calm - N/A   Scattered Clouds
3:35 AM 45.0 °F - 43.3 °F 94% 29.97 in 4.0 mi Calm Calm - N/A   Clear
3:55 AM 43.3 °F - 42.1 °F 95% 29.96 in 4.0 mi Calm Calm - N/A   Clear
4:15 AM 43.7 °F - 42.8 °F 97% 29.97 in 4.0 mi Calm Calm - N/A   Scattered Clouds
4:35 AM 45.1 °F - 44.1 °F 96% 29.96 in 4.0 mi Calm Calm - N/A   Overcast
4:55 AM 46.0 °F - 43.9 °F 92% 29.96 in 5.0 mi Calm Calm - N/A   Overcast
5:15 AM 46.9 °F - 44.6 °F 92% 29.96 in 5.0 mi Calm Calm - N/A   Overcast
5:35 AM 47.3 °F - 45.0 °F 92% 29.95 in 5.0 mi SW 3.5 mph - N/A   Overcast
5:55 AM 47.7 °F - 45.0 °F 90% 29.95 in 7.0 mi WSW 3.5 mph - N/A   Overcast
6:15 AM 47.8 °F - 44.8 °F 89% 29.95 in 7.0 mi WSW 4.6 mph - N/A   Overcast
6:35 AM 48.2 °F - 44.6 °F 87% 29.94 in 10.0 mi SW 4.6 mph - N/A   Overcast
6:55 AM 48.6 °F - 44.8 °F 87% 29.93 in 7.0 mi WSW 8.1 mph - N/A   Overcast
7:15 AM 48.6 °F - 44.6 °F 86% 29.93 in 7.0 mi WSW 6.9 mph - N/A   Overcast
7:35 AM 49.1 °F - 45.0 °F 86% 29.92 in 10.0 mi SW 8.1 mph - N/A   Overcast
7:55 AM 49.6 °F - 45.5 °F 86% 29.93 in 10.0 mi WSW 9.2 mph - N/A   Overcast
8:15 AM 50.2 °F - 45.9 °F 85% 29.93 in 10.0 mi WSW 9.2 mph - N/A   Overcast
8:35 AM 51.8 °F - 46.8 °F 83% 29.91 in 10.0 mi SW 8.1 mph - N/A   Mostly Cloudy
8:55 AM 52.3 °F - 47.5 °F 84% 29.90 in 10.0 mi SW 8.1 mph - N/A   Mostly Cloudy
9:15 AM 53.1 °F - 47.3 °F 81% 29.89 in 10.0 mi WSW 8.1 mph - N/A   Mostly Cloudy
9:35 AM 53.8 °F - 47.8 °F 80% 29.88 in 10.0 mi SW 5.8 mph - N/A   Mostly Cloudy
9:55 AM 54.1 °F - 48.7 °F 82% 29.87 in 10.0 mi SSW 5.8 mph - N/A   Mostly Cloudy
10:15 AM 54.5 °F - 49.1 °F 82% 29.88 in 10.0 mi WSW 6.9 mph - N/A   Overcast
10:35 AM 55.6 °F - 49.1 °F 79% 29.87 in 10.0 mi WSW 11.5 mph 16.1 mph N/A   Overcast
10:55 AM 56.3 °F - 48.9 °F 76% 29.88 in 10.0 mi West 11.5 mph 21.9 mph N/A   Overcast
11:15 AM 55.9 °F - 48.7 °F 77% 29.88 in 10.0 mi West 11.5 mph 18.4 mph N/A   Overcast
11:35 AM 57.4 °F - 48.6 °F 72% 29.87 in 10.0 mi West 12.7 mph 18.4 mph N/A   Mostly Cloudy
11:55 AM 59.7 °F - 46.0 °F 61% 29.86 in 10.0 mi WNW 13.8 mph 23.0 mph N/A   Scattered Clouds
12:15 PM 59.7 °F - 46.2 °F 61% 29.88 in 10.0 mi WNW 11.5 mph 20.7 mph N/A   Mostly Cloudy
12:35 PM 59.7 °F - 43.0 °F 54% 29.88 in 10.0 mi WNW 15.0 mph 21.9 mph N/A   Scattered Clouds
12:55 PM 60.4 °F - 43.2 °F 53% 29.87 in 10.0 mi NW 13.8 mph 23.0 mph N/A   Scattered Clouds
1:15 PM 59.9 °F - 39.7 °F 47% 29.89 in 10.0 mi NW 17.3 mph 25.3 mph N/A   Scattered Clouds
1:35 PM 59.9 °F - 32.0 °F 35% 29.89 in 10.0 mi WNW 16.1 mph 26.5 mph N/A   Clear
1:55 PM 58.3 °F - 33.1 °F 39% 29.90 in 10.0 mi NNW 11.5 mph 31.1 mph N/A   Scattered Clouds
2:15 PM 59.0 °F - 30.4 °F 34% 29.91 in 10.0 mi WNW 13.8 mph 26.5 mph N/A   Scattered Clouds
2:35 PM 58.8 °F - 32.0 °F 36% 29.92 in 10.0 mi NW 15.0 mph 20.7 mph N/A   Scattered Clouds
2:55 PM 58.6 °F - 29.3 °F 33% 29.92 in 10.0 mi NW 15.0 mph 24.2 mph N/A   Scattered Clouds
3:15 PM 57.9 °F - 26.8 °F 30% 29.93 in 10.0 mi NW 13.8 mph 23.0 mph N/A   Scattered Clouds
3:35 PM 57.7 °F - 27.7 °F 32% 29.93 in 10.0 mi NNW 15.0 mph 20.7 mph N/A   Scattered Clouds
3:55 PM 57.9 °F - 28.9 °F 33% 29.94 in 10.0 mi NW 8.1 mph 34.5 mph N/A   Mostly Cloudy
4:15 PM 58.8 °F - 23.9 °F 26% 29.95 in 10.0 mi WNW 18.4 mph 28.8 mph N/A   Scattered Clouds
4:35 PM 56.8 °F - 24.6 °F 29% 29.96 in 10.0 mi WNW 13.8 mph 26.5 mph N/A   Clear
4:55 PM 56.5 °F - 25.2 °F 30% 29.97 in 10.0 mi WNW 17.3 mph 25.3 mph N/A   Scattered Clouds
5:15 PM 55.6 °F - 23.5 °F 29% 29.98 in 10.0 mi WNW 17.3 mph 24.2 mph N/A   Mostly Cloudy
5:35 PM 55.2 °F - 23.2 °F 29% 29.98 in 10.0 mi NW 11.5 mph 21.9 mph N/A   Mostly Cloudy
5:55 PM 54.5 °F - 24.6 °F 31% 29.99 in 10.0 mi WNW 10.4 mph 19.6 mph N/A   Scattered Clouds
6:15 PM 52.9 °F - 26.4 °F 36% 30.00 in 10.0 mi NNW 17.3 mph 31.1 mph N/A   Scattered Clouds
6:35 PM 51.8 °F - 29.3 °F 42% 30.01 in 10.0 mi NW 11.5 mph 23.0 mph N/A   Scattered Clouds
6:55 PM 52.0 °F - 24.6 °F 35% 30.01 in 10.0 mi NW 13.8 mph 20.7 mph N/A   Scattered Clouds
7:15 PM 51.1 °F - 25.0 °F 36% 30.02 in 10.0 mi NW 12.7 mph 18.4 mph N/A   Scattered Clouds
7:35 PM 49.3 °F - 28.2 °F 44% 30.02 in 10.0 mi NNW 8.1 mph 19.6 mph N/A   Scattered Clouds
7:55 PM 48.0 °F - 28.4 °F 47% 30.02 in 10.0 mi NNW 5.8 mph - N/A   Clear
8:15 PM 47.5 °F - 28.4 °F 48% 30.03 in 10.0 mi Calm Calm - N/A   Clear
8:35 PM 47.3 °F - 28.2 °F 48% 30.04 in 10.0 mi Calm Calm - N/A   Clear
8:55 PM 46.4 °F 44.3 °F 29.1 °F 51% 30.04 in 10.0 mi WNW 4.6 mph - N/A   Clear
9:15 PM 46.0 °F 44.8 °F 29.3 °F 52% 30.04 in 10.0 mi WNW 3.5 mph - N/A   Clear
9:35 PM 46.2 °F 44.1 °F 29.8 °F 53% 30.06 in 10.0 mi NW 4.6 mph - N/A   Clear
9:55 PM 45.5 °F 43.2 °F 30.4 °F 56% 30.06 in 10.0 mi WNW 4.6 mph - N/A   Clear
10:15 PM 45.0 °F 42.6 °F 29.5 °F 55% 30.06 in 10.0 mi WNW 4.6 mph - N/A   Clear
10:35 PM 44.6 °F 42.2 °F 28.4 °F 53% 30.06 in 10.0 mi WNW 4.6 mph - N/A   Clear
10:55 PM 44.1 °F 40.8 °F 28.9 °F 55% 30.06 in 10.0 mi WNW 5.8 mph - N/A   Clear
11:15 PM 43.0 °F 41.3 °F 29.7 °F 59% 30.06 in 10.0 mi WNW 3.5 mph - N/A   Clear
11:35 PM 42.8 °F - 30.2 °F 61% 30.07 in 10.0 mi Calm Calm - N/A   Scattered Clouds
11:55 PM 42.3 °F - 29.8 °F 61% 30.07 in 10.0 mi Calm Calm - N/A   Mostly Cloudy